When you browse on this site, cookies collect data to enhance your experience and personalize the content and advertising you see.
Visit our Privacy Policy to learn more. By continuing to use the site, you agree to this use of cookies and data.
  • In Hungary
  • List of Countries
  • For 7 days
  • Water Temperature
  • Weather Map
  • News
  • Weather Widgets
  • user-avatar
    Login

    Hourly Weather Northampton

    Today, 5 June, Friday

    Time Temperature Precipitation Wind Pressure Humidity
    00:00 +7°C° 0 mm 4 mps 739 mmHg 97%
    01:00 +6°C° 0 mm 4 mps 739 mmHg 97%
    02:00 +6°C° 0 mm 4 mps 738 mmHg 96%
    03:00 +6°C° 0 mm 4 mps 737 mmHg 95%
    04:00 +6°C° 0 mm 5 mps 737 mmHg 93%
    05:00 +7°C° 0 mm 6 mps 737 mmHg 92%
    06:00 +6°C° 0 mm 7 mps 737 mmHg 91%
    07:00 +6°C° 0.5 mm 7 mps 737 mmHg 90%
    08:00 +7°C° 0.5 mm 6 mps 737 mmHg 89%
    09:00 +7°C° 0.5 mm 6 mps 737 mmHg 88%
    10:00 +8°C° 0.9 mm 6 mps 738 mmHg 84%
    11:00 +9°C° 0.9 mm 6 mps 738 mmHg 81%
    12:00 +9°C° 0.9 mm 6 mps 738 mmHg 77%
    13:00 +10°C° 0.4 mm 7 mps 738 mmHg 71%
    14:00 +11°C° 0.4 mm 7 mps 738 mmHg 65%
    15:00 +12°C° 0.4 mm 8 mps 738 mmHg 58%
    16:00 +11°C° 0.1 mm 8 mps 738 mmHg 61%
    17:00 +11°C° 0.1 mm 7 mps 738 mmHg 63%
    18:00 +10°C° 0.1 mm 6 mps 738 mmHg 66%
    19:00 +9°C° 0 mm 6 mps 738 mmHg 69%
    20:00 +7°C° 0 mm 6 mps 739 mmHg 71%
    21:00 +6°C° 0 mm 5 mps 739 mmHg 74%
    22:00 +5°C° 0 mm 5 mps 739 mmHg 76%
    23:00 +5°C° 0 mm 5 mps 739 mmHg 79%

    Tomorrow, 6 June, Saturday

    Time Temperature Precipitation Wind Pressure Humidity
    00:00 +3°C° 0 mm 6 mps 739 mmHg 81%
    01:00 +3°C° 0 mm 6 mps 739 mmHg 81%
    02:00 +3°C° 0 mm 6 mps 739 mmHg 80%
    03:00 +3°C° 0 mm 7 mps 738 mmHg 79%
    04:00 +2°C° 0 mm 8 mps 738 mmHg 78%
    05:00 +3°C° 0 mm 9 mps 737 mmHg 77%
    06:00 +5°C° 0 mm 10 mps 737 mmHg 76%
    07:00 +5°C° 0.6 mm 10 mps 737 mmHg 81%
    08:00 +6°C° 0.6 mm 9 mps 736 mmHg 86%
    09:00 +6°C° 0.6 mm 9 mps 736 mmHg 91%
    10:00 +8°C° 0.5 mm 9 mps 736 mmHg 85%
    11:00 +11°C° 0.5 mm 8 mps 737 mmHg 79%
    12:00 +13°C° 0.5 mm 8 mps 737 mmHg 73%
    13:00 +13°C° 0.4 mm 8 mps 737 mmHg 72%
    14:00 +13°C° 0.4 mm 8 mps 737 mmHg 71%
    15:00 +13°C° 0.4 mm 8 mps 738 mmHg 70%
    16:00 +14°C° 0.4 mm 7 mps 738 mmHg 75%
    17:00 +13°C° 0.4 mm 6 mps 739 mmHg 80%
    18:00 +13°C° 0.4 mm 4 mps 739 mmHg 84%
    19:00 +11°C° 0.1 mm 4 mps 740 mmHg 86%
    20:00 +9°C° 0.1 mm 3 mps 741 mmHg 87%
    21:00 +8°C° 0.1 mm 3 mps 742 mmHg 89%
    22:00 +7°C° 0 mm 3 mps 742 mmHg 90%
    23:00 +7°C° 0 mm 3 mps 742 mmHg 91%

    Day after tomorrow, 7 June, Sunday

    Time Temperature Precipitation Wind Pressure Humidity
    00:00 +5°C° 0 mm 3 mps 743 mmHg 92%
    01:00 +5°C° 0 mm 3 mps 743 mmHg 93%
    02:00 +5°C° 0 mm 3 mps 743 mmHg 95%
    03:00 +5°C° 0 mm 3 mps 744 mmHg 96%
    04:00 +7°C° 0 mm 3 mps 744 mmHg 96%
    05:00 +8°C° 0 mm 3 mps 744 mmHg 95%
    06:00 +9°C° 0 mm 3 mps 745 mmHg 95%
    07:00 +10°C° 0 mm 3 mps 745 mmHg 90%
    08:00 +12°C° 0 mm 3 mps 746 mmHg 86%
    09:00 +13°C° 0 mm 3 mps 746 mmHg 81%
    10:00 +14°C° 0.5 mm 3 mps 746 mmHg 82%
    11:00 +14°C° 0.5 mm 3 mps 747 mmHg 83%
    12:00 +14°C° 0.5 mm 3 mps 747 mmHg 83%
    13:00 +14°C° 0.4 mm 4 mps 747 mmHg 82%
    14:00 +15°C° 0.4 mm 4 mps 747 mmHg 81%
    15:00 +15°C° 0.4 mm 5 mps 748 mmHg 80%
    16:00 +14°C° 0.2 mm 5 mps 748 mmHg 82%
    17:00 +13°C° 0.2 mm 6 mps 748 mmHg 83%
    18:00 +13°C° 0.2 mm 6 mps 749 mmHg 85%
    19:00 +12°C° 0 mm 5 mps 749 mmHg 87%
    20:00 +10°C° 0 mm 5 mps 750 mmHg 90%
    21:00 +10°C° 0 mm 4 mps 751 mmHg 92%
    22:00 +8°C° 0 mm 4 mps 751 mmHg 90%
    23:00 +8°C° 0 mm 4 mps 751 mmHg 87%

    8 June, Monday

    Time Temperature Precipitation Wind Pressure Humidity
    00:00 +8°C° 0 mm 4 mps 752 mmHg 85%
    01:00 +8°C° 0 mm 4 mps 752 mmHg 87%
    02:00 +7°C° 0 mm 4 mps 752 mmHg 89%
    03:00 +6°C° 0 mm 4 mps 752 mmHg 91%
    04:00 +7°C° 0 mm 4 mps 752 mmHg 89%
    05:00 +7°C° 0 mm 5 mps 753 mmHg 87%
    06:00 +8°C° 0 mm 5 mps 753 mmHg 85%
    07:00 +9°C° 0 mm 5 mps 753 mmHg 82%
    08:00 +10°C° 0 mm 5 mps 754 mmHg 79%
    09:00 +12°C° 0 mm 5 mps 754 mmHg 75%
    10:00 +13°C° 0.1 mm 5 mps 754 mmHg 75%
    11:00 +13°C° 0.1 mm 5 mps 754 mmHg 75%
    12:00 +13°C° 0.1 mm 5 mps 755 mmHg 75%
    13:00 +13°C° 0.1 mm 5 mps 755 mmHg 75%
    14:00 +13°C° 0.1 mm 5 mps 755 mmHg 75%
    15:00 +14°C° 0.1 mm 5 mps 755 mmHg 74%
    16:00 +13°C° 0 mm 5 mps 755 mmHg 75%
    17:00 +13°C° 0 mm 5 mps 755 mmHg 76%
    18:00 +12°C° 0 mm 5 mps 755 mmHg 77%
    19:00 +11°C° 0 mm 4 mps 755 mmHg 82%
    20:00 +9°C° 0 mm 3 mps 756 mmHg 86%
    21:00 +8°C° 0 mm 3 mps 756 mmHg 91%
    22:00 +7°C° 0 mm 3 mps 756 mmHg 92%
    23:00 +5°C° 0 mm 3 mps 756 mmHg 93%

    9 June, Tuesday

    Time Temperature Precipitation Wind Pressure Humidity
    00:00 +5°C° 0 mm 2 mps 756 mmHg 94%
    01:00 +5°C° 0 mm 2 mps 756 mmHg 93%
    02:00 +5°C° 0 mm 2 mps 756 mmHg 92%
    03:00 +5°C° 0 mm 2 mps 756 mmHg 91%
    04:00 +6°C° 0 mm 2 mps 756 mmHg 88%
    05:00 +7°C° 0 mm 3 mps 757 mmHg 86%
    06:00 +8°C° 0 mm 3 mps 757 mmHg 84%
    07:00 +9°C° 0 mm 3 mps 757 mmHg 77%
    08:00 +10°C° 0 mm 3 mps 757 mmHg 71%
    09:00 +12°C° 0 mm 3 mps 758 mmHg 64%
    10:00 +12°C° 0 mm 3 mps 758 mmHg 65%
    11:00 +12°C° 0 mm 3 mps 758 mmHg 65%
    12:00 +13°C° 0 mm 2 mps 758 mmHg 66%
    13:00 +14°C° 0 mm 2 mps 758 mmHg 65%
    14:00 +14°C° 0 mm 2 mps 758 mmHg 64%
    15:00 +15°C° 0 mm 2 mps 757 mmHg 63%
    16:00 +15°C° 0 mm 2 mps 758 mmHg 65%
    17:00 +14°C° 0 mm 2 mps 758 mmHg 68%
    18:00 +14°C° 0 mm 2 mps 758 mmHg 70%
    19:00 +12°C° 0 mm 2 mps 758 mmHg 77%
    20:00 +10°C° 0 mm 2 mps 758 mmHg 84%
    21:00 +8°C° 0 mm 2 mps 759 mmHg 90%
    22:00 +8°C° 0 mm 1 mps 759 mmHg 90%
    23:00 +8°C° 0 mm 1 mps 759 mmHg 90%

    10 June, Wednesday

    Time Temperature Precipitation Wind Pressure Humidity
    00:00 +6°C° 0 mm 0 mps 759 mmHg 89%
    01:00 +6°C° 0 mm 0 mps 759 mmHg 89%
    02:00 +6°C° 0 mm 0 mps 759 mmHg 89%
    03:00 +6°C° 0 mm 0 mps 759 mmHg 89%
    04:00 +7°C° 0 mm 0 mps 759 mmHg 87%
    05:00 +8°C° 0 mm 0 mps 760 mmHg 85%
    06:00 +10°C° 0 mm 1 mps 760 mmHg 82%
    07:00 +12°C° 0 mm 1 mps 760 mmHg 78%
    08:00 +13°C° 0 mm 1 mps 760 mmHg 74%
    09:00 +15°C° 0 mm 1 mps 761 mmHg 69%
    10:00 +16°C° 0 mm 1 mps 760 mmHg 67%
    11:00 +18°C° 0 mm 1 mps 760 mmHg 65%
    12:00 +19°C° 0 mm 1 mps 760 mmHg 62%
    13:00 +19°C° 0 mm 1 mps 760 mmHg 63%
    14:00 +19°C° 0 mm 1 mps 760 mmHg 63%
    15:00 +19°C° 0 mm 1 mps 760 mmHg 64%
    16:00 +19°C° 0 mm 1 mps 760 mmHg 67%
    17:00 +19°C° 0 mm 1 mps 760 mmHg 70%
    18:00 +19°C° 0 mm 1 mps 760 mmHg 74%
    19:00 +16°C° 0 mm 1 mps 760 mmHg 78%
    20:00 +14°C° 0 mm 1 mps 761 mmHg 81%
    21:00 +11°C° 0 mm 0 mps 761 mmHg 85%
    22:00 +11°C° 0 mm 0 mps 761 mmHg 86%
    23:00 +10°C° 0 mm 0 mps 761 mmHg 88%
    Show more